Carrick-on-Shannon, Ireland

4:11 PM IST on April 19, 2018 (GMT +0100)
Carrick-on-Shannon

Weather History for 03973 - March, 2013

Change the Weather History Date:

Tuesday, March 5, 2013

  Actual Average Record
Temperature  
Mean Temperature 39 °F -  
Max Temperature 46 °F - - ()
Min Temperature 32 °F - - ()
Degree Days  
Heating Degree Days 26    
Moisture  
Dew Point 35 °F    
Average Humidity 77    
Maximum Humidity 98    
Minimum Humidity 58    
Precipitation  
Precipitation 0.02 in - - ()
Sea Level Pressure  
Sea Level Pressure 29.59 in    
Wind  
Wind Speed 9 mph ()    
Max Wind Speed 13 mph    
Max Gust Speed -    
Visibility 4.0 miles    
Events      
T = Trace of Precipitation, MM = Missing Value Source: Averaged Metar Reports

Daily Weather History Graph

Daily Weather History Graph

Search for Another Location

Airport or City:

Astronomy

Mar. 05, 2013 Rise Set
Actual Time 7:13 AM GMT 6:20 PM GMT
Civil Twilight 6:38 AM GMT 6:55 PM GMT
Nautical Twilight 5:57 AM GMT 7:36 PM GMT
Astronomical Twilight 5:16 AM GMT 8:18 PM GMT
Moon 2:53 AM GMT (3/5) 11:05 AM GMT (3/5)
Length of Visible Light 12h 17m
Length of Day
11h 06m
Last Quarter, 43% of the Moon is Illuminated
Mar 5
Last Quarter
Mar 11
New
Mar 19
First Quarter
Mar 27
Full
Apr 3
Last Quarter

Hourly Weather History & Observations

Time (GMT) Temp. Windchill Dew Point Humidity Pressure Visibility Wind Dir Wind Speed Gust Speed Precip Events Conditions
12:00 AM 37 °F - 36 °F 94% 29.72 in - ESE 6.7 mph - -  
6:00 AM 33 °F - 33 °F 98% 29.68 in 2 mi East 6.7 mph - -   Mist
8:00 AM 33.8 °F 27.0 °F 32.0 °F 93% 29.62 in 1.2 mi East 8.1 mph - N/A   Scattered Clouds
8:30 AM 33.8 °F 26.4 °F 32.0 °F 93% 29.62 in 1.4 mi East 9.2 mph - N/A   Mostly Cloudy
9:00 AM 35.6 °F 28.6 °F 33.8 °F 93% 29.62 in 1.6 mi East 9.2 mph - N/A   Mostly Cloudy
9:30 AM 37.4 °F 29.8 °F 33.8 °F 87% 29.62 in 1.9 mi ESE 11.5 mph - N/A   Mostly Cloudy
10:00 AM 37.4 °F 30.3 °F 33.8 °F 87% 29.62 in - ESE 10.4 mph - N/A   Mostly Cloudy
10:30 AM 39.2 °F 33.0 °F 33.8 °F 81% 29.59 in 2.8 mi East 9.2 mph - N/A   Mostly Cloudy
11:00 AM 41.0 °F 34.7 °F 33.8 °F 76% 29.59 in 3.1 mi East 10.4 mph - N/A   Mostly Cloudy
11:30 AM 42.8 °F 36.2 °F 33.8 °F 70% 29.59 in 3.1 mi East 12.7 mph - N/A   Mostly Cloudy
12:00 PM 44 °F - 34 °F 58% 29.62 in 4 mi ESE 11.2 mph - -   Mist
12:00 PM 44.6 °F 39.2 °F 33.8 °F 66% 29.59 in 4.3 mi ESE 10.4 mph - N/A   Mostly Cloudy
12:30 PM 44.6 °F 38.8 °F 33.8 °F 66% 29.59 in 5.0 mi ESE 11.5 mph - N/A   Mostly Cloudy
1:00 PM 44.6 °F 39.7 °F 35.6 °F 71% 29.56 in 5.6 mi ESE 9.2 mph - N/A   Mostly Cloudy
1:30 PM 46.4 °F 41.1 °F 35.6 °F 66% 29.56 in 5.0 mi East 11.5 mph - N/A   Mostly Cloudy
2:00 PM 46.4 °F 41.5 °F 35.6 °F 66% 29.56 in 5.0 mi ESE 10.4 mph - N/A   Mostly Cloudy
2:30 PM 46.4 °F 41.1 °F 37.4 °F 71% 29.53 in 5.0 mi ESE 11.5 mph - N/A   Mostly Cloudy
3:00 PM 46.4 °F 41.1 °F 35.6 °F 66% 29.53 in 5.6 mi ESE 11.5 mph - N/A   Mostly Cloudy
3:30 PM 46.4 °F 40.7 °F 35.6 °F 66% 29.53 in 5.6 mi East 12.7 mph - N/A   Mostly Cloudy
4:00 PM 46.4 °F 40.7 °F 37.4 °F 71% 29.53 in 5.6 mi East 12.7 mph - N/A   Mostly Cloudy
4:30 PM 44.6 °F 38.8 °F 37.4 °F 76% 29.53 in 5.6 mi East 11.5 mph - N/A   Mostly Cloudy
5:00 PM 46.4 °F 41.5 °F 39.2 °F 76% 29.53 in 5.6 mi ESE 10.4 mph - N/A   Mostly Cloudy
6:00 PM 45 °F - 39 °F 71% 29.55 in 4 mi East 13.4 mph - -   Mist